Back to catalog

STARLINK-34304

AliveCommunicationsVLEO
NORAD 64224·PAYLOAD·🇺🇸 United States

Launched May 31, 2025 from Vandenberg Space Force Base

Loading…

Next Passes (next 24 hours)

TLE

FreshSource: CelesTrak SupGP

Epoch: Sep 14, 2026, 14:38 UTC

1 64224C 25117X   26257.61020833 -.00029234  00000+0 -86402-3 0  2570
2 64224  53.1572 241.0162 0001373  91.7099 329.1222 15.34394518    13

Track STARLINK-34304 in real time with AllMySat

Download on the App Store